Temperature
28 25 24 25 26 27 27 27 26 27 28 27 26 25 25 25 25 25 25 24 24 24 24 24 23 23 22 22 22 21 21 21 20 20 20 20 20 19 19 19 19 19 19 19
25 25 26 28 28 28 27 26 26 27 28 27 25 25 25 25 25 25 25 24 24 24 24 23 23 23 22 22 22 21 21 21 20 20 20 20 19 19 19 19 19 19 19 19
26 26 28 29 28 28 27 26 26 26 27 26 26 25 25 25 25 26 25 25 25 24 24 23 23 23 23 22 22 22 21 21 20 20 20 19 19 19 19 19 19 19 19 19
26 28 29 28 28 28 27 28 28 28 25 24 25 23 24 24 24 25 25 24 25 24 24 24 23 23 23 23 22 22 21 21 20 20 20 19 19 19 19 19 19 19 19 19
26 28 28 28 29 29 28 29 28 27 25 23 24 23 23 23 23 24 24 24 24 25 24 24 24 24 23 23 22 22 21 21 20 20 20 19 19 19 19 19 19 19 19 19
27 28 28 29 29 29 29 27 26 24 22 23 23 23 22 22 23 23 24 24 25 24 24 24 24 24 23 23 22 22 22 21 20 20 20 20 19 19 19 19 19 19 19 18
27 28 28 29 28 28 27 24 23 23 22 22 22 23 22 23 24 24 24 24 25 25 24 24 24 23 23 23 22 22 22 21 21 20 20 20 19 19 19 19 19 19 18 18
25 25 27 28 28 27 27 24 23 23 22 22 22 22 23 24 24 25 25 25 25 25 24 24 24 23 23 23 22 22 21 21 21 20 20 20 19 19 19 19 19 19 18 18
24 25 28 29 29 28 27 25 23 22 22 21 22 22 23 24 24 24 24 24 24 24 24 24 23 23 23 22 22 22 21 21 21 20 20 20 19 19 19 19 19 19 18 18
25 25 26 28 28 28 26 25 22 22 22 22 22 22 22 23 23 23 23 23 23 24 24 24 23 23 23 22 22 22 21 21 21 20 20 20 19 19 19 19 19 18 18 18
24 24 24 25 26 26 25 25 22 20 21 21 21 22 23 23 22 23 23 24 24 24 24 23 23 23 22 22 22 21 21 21 21 20 20 20 19 19 19 19 19 18 18 18
23 21 22 24 25 26 26 24 22 22 21 20 20 21 24 23 23 23 23 24 24 24 24 23 23 22 22 21 21 21 21 21 21 20 20 20 19 19 19 18 18 18 18 18
23 21 21 22 23 24 24 24 23 21 20 20 20 22 23 22 22 23 23 24 24 24 23 23 22 22 22 21 21 21 21 21 20 20 20 19 19 19 19 18 18 18 18 18
23 20 21 22 22 23 24 25 24 22 20 21 21 22 22 22 22 22 23 23 24 23 23 23 22 22 22 21 21 21 21 20 20 20 19 19 19 18 18 18 18 17 17 17
21 21 22 22 23 24 24 25 25 23 22 22 22 22 22 22 22 22 23 23 23 22 22 22 22 22 21 21 21 21 20 20 20 20 19 19 18 18 18 17 17 17 17 17
19 21 21 22 23 24 24 24 24 24 23 22 22 22 21 22 23 22 22 22 22 22 22 22 22 22 21 21 21 20 20 20 20 19 19 19 18 18 18 17 17 17 17 16
19 19 20 20 21 22 22 23 24 23 23 22 21 21 21 21 21 21 22 22 22 22 22 22 22 21 21 21 21 20 20 20 19 19 19 18 18 18 17 17 17 17 16 16
18 18 17 18 21 21 21 22 24 23 22 22 21 21 21 21 22 22 22 22 22 22 22 22 22 21 21 21 21 20 20 19 19 19 19 18 18 18 17 17 17 17 16 16
18 18 17 17 19 20 21 22 23 22 21 21 21 21 21 21 21 21 22 22 22 22 22 22 22 22 21 21 20 20 19 19 19 18 18 18 18 17 17 17 17 16 16 16
17 17 17 17 19 20 21 23 23 22 20 21 20 20 20 20 19 19 21 22 22 22 22 22 22 21 21 21 20 19 19 19 18 18 18 18 17 17 17 17 17 16 16 16
18 17 17 17 18 18 20 22 23 21 19 21 21 21 20 19 19 21 21 21 21 21 21 21 21 21 21 20 20 19 19 18 18 18 17 17 17 17 17 16 16 16 16 15
17 16 16 16 17 18 20 21 20 19 20 21 21 21 20 20 20 20 21 21 21 21 21 21 21 21 20 20 20 19 19 18 18 17 17 17 17 16 16 16 16 15 15 15
16 16 16 16 17 18 20 20 21 21 20 20 20 20 20 20 20 20 20 20 20 20 20 21 20 20 20 19 19 19 18 18 17 17 17 16 16 16 16 16 15 15 15 15
16 16 15 16 17 18 19 20 20 21 20 20 20 20 20 19 19 19 19 19 19 20 20 20 20 20 19 19 19 18 18 17 17 17 16 16 16 15 15 15 15 15 14 14
16 16 15 15 16 18 19 20 20 20 20 20 20 20 20 19 19 19 19 19 19 19 19 19 19 19 19 18 18 18 17 17 17 16 16 16 16 15 15 15 15 14 14 14
15 16 15 15 16 16 18 19 20 20 19 19 19 19 19 19 18 18 18 18 18 18 18 18 18 18 18 18 17 17 17 17 16 16 15 15 15 15 15 15 14 14 14 14
Wind_Speed
2 1 5 9 8 7 4 4 6 6 4 2 5 6 8 11 10 11 12 12 12 12 10 12 13 13 12 10 9 9 8 7 5 3 3 2 1 1 1 2 3 4 3 4
2 7 13 9 7 5 5 5 6 4 2 3 5 5 9 12 14 14 15 15 13 11 10 12 12 12 12 12 10 9 8 7 6 4 4 3 3 2 2 1 2 3 2 2
9 10 9 8 7 6 7 7 7 5 2 2 3 1 5 6 8 9 12 13 13 15 15 14 13 12 12 12 11 11 9 8 7 5 3 2 2 1 1 0 1 1 2 3
7 9 7 8 8 6 7 8 7 5 2 2 2 2 6 5 6 8 10 11 13 13 13 13 13 13 13 13 11 9 9 8 6 6 5 5 3 3 3 2 2 1 2 2
7 5 6 8 9 6 6 6 4 3 2 1 2 2 6 1 5 8 9 12 14 14 15 15 14 14 13 12 10 9 8 7 6 6 6 5 3 3 2 1 2 2 1 1
9 6 6 8 8 6 5 1 3 4 5 1 4 3 6 4 8 8 9 11 12 13 13 13 12 11 9 9 9 9 9 7 7 6 6 5 5 4 3 2 2 2 1 1
7 7 6 3 4 5 1 4 3 4 4 4 4 2 7 6 6 7 8 9 9 10 11 12 12 11 10 10 10 9 9 8 8 7 6 6 6 6 5 4 3 2 1 1
5 7 6 4 5 4 3 7 7 5 5 4 3 3 6 5 3 4 5 6 8 10 10 12 12 12 11 11 10 10 9 8 8 8 7 6 6 5 4 4 4 4 3 3
7 8 6 5 5 5 2 3 8 7 3 1 3 4 6 2 1 2 3 5 7 9 10 11 11 11 11 11 11 10 9 7 7 7 6 5 5 5 5 4 3 3 3 3
8 5 6 5 3 2 5 5 4 5 4 3 3 3 4 5 5 3 5 6 6 6 7 9 9 10 10 10 9 8 8 7 7 7 6 6 5 5 4 4 4 3 3 3
6 5 4 3 1 3 2 2 3 4 6 7 4 6 6 9 7 6 7 7 7 7 7 8 8 9 9 9 8 8 7 6 6 6 6 5 5 5 4 4 4 4 3 3
3 5 2 6 4 2 4 3 5 4 3 5 5 6 5 7 6 7 6 6 7 7 7 8 9 9 9 8 8 7 7 7 6 6 5 4 4 4 4 4 4 3 3 3
4 6 2 6 6 5 3 1 2 4 4 4 5 5 2 3 3 4 5 6 7 7 7 7 8 9 9 9 8 7 7 6 5 5 5 5 5 4 4 4 3 3 3 3
4 5 6 7 7 4 1 2 2 4 3 3 6 5 3 5 5 4 5 5 5 7 8 8 8 9 9 9 9 8 7 6 6 5 5 5 5 5 5 4 3 3 3 3
5 4 2 4 4 2 1 3 1 2 5 6 6 7 9 10 10 9 7 6 5 6 7 9 9 9 8 8 7 7 6 6 6 5 5 5 4 4 4 4 3 3 3 3
5 3 2 3 2 2 2 4 2 2 2 3 3 4 5 5 6 6 8 8 7 6 7 8 9 9 9 9 8 7 7 6 6 6 5 4 3 3 4 4 3 3 3 2
2 4 3 2 4 4 4 3 2 1 1 5 5 6 3 3 6 9 10 10 9 8 7 8 9 9 9 8 9 9 8 6 6 5 4 4 4 4 4 4 3 3 3 3
4 3 3 2 3 3 7 5 2 2 2 2 3 3 5 6 5 5 6 8 7 8 8 8 8 8 7 6 7 7 7 6 6 6 5 4 4 4 3 3 4 4 3 3
6 6 3 3 3 4 5 4 1 3 1 1 4 5 4 4 5 3 1 4 6 7 8 8 9 9 8 7 7 7 6 6 6 5 5 5 5 4 3 4 4 3 3 3
4 6 5 4 4 6 6 5 2 5 1 2 3 5 5 5 3 3 3 2 3 4 5 7 8 8 8 8 8 8 6 6 6 6 5 5 5 5 4 4 3 2 3 3
2 1 3 4 4 6 6 4 1 4 7 4 4 5 5 3 5 5 4 3 4 5 6 6 7 7 7 8 9 8 7 6 6 4 4 4 4 4 4 3 2 2 2 3
4 3 3 4 4 7 4 2 4 6 3 4 4 5 5 3 2 2 2 2 4 4 4 6 6 5 6 7 8 7 6 5 4 4 3 3 2 2 2 3 2 2 3 3
3 6 5 7 7 6 2 4 4 5 4 3 3 4 5 3 2 2 3 2 3 4 4 5 6 5 4 5 7 7 6 5 5 4 3 2 2 1 2 2 2 1 2 2
4 0 2 0 3 2 1 3 3 4 4 3 4 4 5 4 3 3 3 2 3 3 4 4 6 6 4 3 5 5 5 5 5 5 4 3 3 1 1 1 2 2 2 2
5 2 1 1 3 2 1 2 3 2 4 4 4 4 5 6 4 3 2 2 3 3 3 3 4 5 4 4 4 4 5 5 5 4 3 2 3 3 2 1 1 2 2 3
4 3 3 6 7 5 5 4 3 5 4 5 6 5 4 5 4 2 2 2 3 3 2 2 3 4 4 4 4 3 4 5 6 4 3 3 2 2 2 2 1 3 1 2
Wind_Direction
257 132 246 241 224 219 221 258 266 267 245 155 175 169 183 184 184 181 178 177 179 179 172 166 164 162 160 161 161 163 161 169 160 149 148 147 172 194 194 188 171 172 179 183
337 246 242 244 249 237 241 257 267 293 252 184 179 188 195 190 196 190 185 184 182 174 165 167 166 166 166 168 168 167 168 171 170 170 170 172 173 195 200 197 160 164 174 195
220 239 250 256 258 244 249 224 230 226 317 53 134 277 215 208 203 195 189 184 181 180 176 174 173 174 172 173 174 175 175 175 177 171 152 133 97 72 57 174 188 195 190 192
239 244 253 258 255 224 250 235 209 190 164 268 139 223 272 224 201 199 193 184 183 183 178 178 176 178 180 181 177 170 173 175 176 163 157 163 170 187 210 201 199 215 193 185
247 238 242 253 252 224 234 227 182 176 140 50 350 142 279 230 208 214 197 188 185 183 180 180 181 183 181 178 175 169 165 170 173 168 168 172 180 194 195 181 181 201 214 185
246 247 227 233 253 242 213 69 39 44 66 16 258 185 265 230 213 206 196 188 184 183 182 181 181 175 171 169 168 167 165 171 178 178 177 170 172 177 174 186 192 211 229 237
285 280 266 253 285 305 102 98 32 1 10 256 268 188 243 247 221 191 185 188 187 184 179 176 174 171 171 170 170 168 167 173 179 177 179 175 176 177 181 187 191 191 197 222
231 272 261 242 208 223 233 146 163 198 218 258 303 240 259 264 210 168 168 172 176 183 181 176 176 173 172 171 167 166 168 177 179 181 184 179 177 180 188 190 189 194 199 208
200 245 266 263 245 178 213 207 174 150 164 173 270 278 307 339 152 132 135 147 162 176 173 169 169 168 168 170 171 171 171 174 179 182 180 179 182 181 188 192 188 195 205 202
179 227 271 277 329 314 172 172 99 124 159 211 259 252 230 229 216 171 150 158 164 152 152 160 161 160 166 166 164 160 165 174 180 180 184 187 190 190 186 177 185 192 198 198
159 173 290 345 244 249 27 65 115 130 157 165 206 256 223 199 198 178 180 171 159 149 153 155 157 155 149 146 153 158 161 164 171 177 183 185 193 194 185 184 191 189 185 184
147 138 220 253 260 184 142 154 138 151 225 172 169 256 264 188 188 179 186 171 152 146 148 149 151 148 147 148 150 156 163 168 175 172 171 184 197 190 188 196 200 185 181 186
118 111 85 336 341 359 53 64 114 128 127 155 164 246 280 160 160 178 168 160 143 133 136 135 143 150 156 157 158 162 166 169 170 163 166 182 192 184 196 206 205 191 186 194
102 108 155 197 221 221 282 313 67 106 139 211 207 207 216 201 184 182 169 159 148 141 143 146 154 161 163 163 165 168 172 171 169 167 169 184 192 187 196 203 203 199 196 197
80 111 162 208 226 188 223 290 280 197 194 194 213 193 206 203 192 182 169 153 149 147 152 158 162 164 162 162 165 166 168 169 167 166 173 189 191 180 171 179 193 201 208 213
58 96 59 357 344 20 336 311 293 247 177 172 164 220 210 191 172 164 162 156 162 172 171 170 165 162 166 167 165 160 165 171 164 169 182 186 180 176 178 185 193 197 201 208
73 97 82 297 320 23 316 262 237 265 186 163 191 223 187 145 168 177 173 167 172 183 175 173 171 169 171 172 165 168 173 170 163 171 177 179 181 185 189 189 191 209 203 193
143 112 131 142 59 221 249 268 194 97 51 132 146 155 153 160 168 160 157 163 176 184 176 172 171 169 166 163 161 164 161 160 166 171 176 178 179 188 193 187 199 213 195 191
153 146 134 133 179 255 283 285 198 141 327 49 125 125 120 123 87 73 138 162 181 189 180 172 167 163 158 154 151 146 151 159 167 179 186 188 185 187 193 200 208 204 189 199
78 113 130 146 169 217 241 256 192 121 230 265 136 132 128 105 116 216 225 205 174 162 162 162 159 153 153 158 149 148 162 166 181 192 194 192 187 188 197 203 205 201 188 198
14 44 152 175 205 243 254 274 121 175 218 212 152 141 138 148 191 208 207 179 154 150 158 153 148 154 164 159 150 152 160 180 191 184 179 181 183 188 187 185 189 180 182 186
197 193 202 169 195 242 267 93 170 205 180 143 126 127 121 115 112 133 125 139 133 117 129 133 133 144 152 151 148 151 169 180 161 154 157 165 178 191 180 166 180 172 168 173
197 197 195 192 213 234 227 159 172 144 130 140 135 126 114 99 94 85 70 66 107 111 123 130 126 127 135 153 154 161 176 163 149 145 150 157 159 162 163 171 176 175 171 173
297 291 126 219 263 240 143 115 126 140 140 156 141 125 111 110 113 100 86 88 99 95 99 114 121 127 138 153 153 160 162 154 146 150 156 158 153 147 137 159 173 180 193 187
268 347 68 238 262 317 318 155 143 115 105 97 95 109 119 119 120 116 99 104 104 91 98 105 137 147 156 154 148 156 156 144 144 148 154 165 173 165 156 156 209 211 225 219
246 200 193 234 235 198 224 221 153 129 127 117 105 88 99 120 118 108 106 123 114 97 101 105 130 137 143 145 151 162 167 154 149 153 164 184 186 171 159 150 17 359 315 287
Height
1496 1502 1507 1503 1500 1501 1503 1508 1510 1502 1494 1499 1503 1505 1505 1505 1507 1509 1510 1512 1514 1516 1519 1521 1524 1526 1528 1530 1532 1533 1535 1536 1538 1539 1539 1540 1541 1542 1542 1542 1543 1543 1543 1543
1501 1504 1494 1491 1493 1495 1500 1507 1507 1500 1493 1499 1504 1505 1501 1502 1502 1504 1506 1509 1512 1515 1517 1520 1522 1524 1525 1528 1530 1532 1533 1535 1536 1537 1539 1539 1540 1541 1541 1541 1542 1542 1542 1542
1501 1494 1487 1489 1492 1497 1499 1503 1503 1503 1498 1498 1504 1510 1504 1500 1501 1503 1504 1506 1509 1512 1514 1517 1520 1522 1524 1526 1528 1529 1531 1533 1535 1536 1537 1538 1539 1540 1540 1540 1540 1541 1541 1541
1492 1486 1486 1488 1490 1492 1501 1489 1490 1494 1506 1516 1509 1528 1510 1502 1501 1501 1502 1504 1506 1509 1512 1514 1517 1519 1521 1524 1526 1528 1530 1532 1533 1534 1536 1536 1537 1537 1538 1538 1539 1539 1540 1540
1490 1484 1485 1488 1484 1484 1489 1483 1487 1492 1504 1515 1513 1524 1516 1504 1504 1500 1499 1500 1502 1505 1508 1511 1513 1516 1519 1522 1524 1526 1528 1530 1532 1533 1534 1535 1536 1536 1537 1537 1538 1538 1538 1538
1482 1478 1479 1479 1476 1477 1480 1485 1491 1499 1512 1529 1518 1523 1521 1507 1500 1496 1495 1497 1499 1501 1504 1507 1510 1514 1517 1520 1522 1524 1526 1527 1529 1531 1532 1533 1533 1534 1535 1535 1536 1536 1536 1536
1487 1479 1475 1474 1479 1477 1481 1501 1523 1528 1537 1534 1516 1518 1515 1494 1490 1491 1492 1494 1496 1499 1502 1504 1508 1510 1513 1516 1519 1521 1523 1525 1527 1528 1529 1530 1531 1532 1532 1533 1533 1534 1534 1534
1499 1497 1477 1472 1476 1483 1484 1496 1522 1537 1540 1533 1518 1519 1504 1488 1485 1487 1489 1491 1493 1496 1499 1501 1504 1507 1510 1513 1516 1519 1521 1522 1524 1525 1526 1527 1529 1530 1530 1531 1531 1532 1532 1532
1495 1493 1472 1468 1467 1472 1483 1491 1494 1515 1523 1532 1525 1513 1498 1488 1487 1487 1488 1490 1491 1493 1495 1498 1501 1505 1508 1511 1513 1516 1518 1520 1522 1523 1525 1526 1527 1527 1528 1529 1529 1529 1530 1530
1478 1489 1476 1468 1466 1468 1474 1481 1499 1514 1530 1537 1527 1518 1511 1496 1491 1488 1488 1489 1491 1491 1494 1497 1499 1502 1506 1508 1511 1514 1516 1518 1519 1521 1522 1524 1525 1525 1526 1527 1527 1527 1528 1528
1470 1485 1483 1476 1478 1480 1480 1485 1495 1508 1513 1529 1535 1522 1489 1488 1487 1487 1487 1487 1488 1489 1492 1496 1499 1501 1504 1507 1509 1512 1514 1515 1517 1519 1520 1521 1522 1523 1524 1524 1525 1525 1525 1526
1469 1483 1492 1483 1471 1468 1473 1481 1492 1508 1513 1515 1522 1514 1479 1480 1482 1483 1484 1485 1486 1488 1491 1495 1497 1500 1503 1505 1508 1510 1512 1514 1515 1517 1518 1519 1520 1521 1521 1521 1522 1523 1523 1523
1467 1484 1501 1498 1489 1478 1478 1479 1483 1493 1506 1514 1520 1509 1480 1480 1481 1481 1481 1483 1485 1487 1490 1493 1496 1499 1501 1503 1506 1508 1510 1511 1513 1514 1515 1515 1516 1517 1517 1518 1519 1520 1520 1521
1462 1481 1494 1502 1495 1484 1482 1479 1480 1490 1506 1508 1504 1497 1486 1483 1481 1481 1481 1482 1483 1486 1489 1492 1495 1498 1500 1502 1504 1506 1508 1509 1511 1512 1512 1513 1513 1514 1514 1515 1516 1517 1517 1518
1465 1480 1480 1480 1475 1474 1476 1476 1476 1483 1488 1496 1492 1489 1484 1480 1478 1478 1479 1481 1483 1486 1488 1490 1493 1495 1498 1500 1502 1504 1506 1507 1508 1509 1510 1510 1511 1512 1512 1512 1513 1514 1514 1514
1470 1479 1480 1480 1474 1474 1476 1474 1473 1475 1477 1482 1483 1484 1476 1475 1476 1478 1479 1481 1483 1485 1487 1489 1491 1493 1495 1497 1499 1502 1503 1505 1506 1507 1507 1508 1509 1509 1509 1509 1510 1511 1511 1511
1474 1480 1488 1491 1480 1478 1485 1475 1473 1473 1473 1477 1483 1479 1474 1474 1474 1475 1477 1479 1480 1483 1485 1488 1489 1490 1492 1495 1496 1498 1500 1502 1503 1504 1505 1506 1506 1506 1506 1507 1507 1507 1508 1508
1473 1481 1491 1494 1489 1499 1484 1467 1466 1469 1471 1470 1470 1471 1471 1471 1472 1474 1476 1477 1479 1481 1482 1485 1487 1488 1490 1493 1495 1496 1498 1499 1500 1501 1502 1503 1503 1504 1504 1504 1504 1505 1505 1505
1465 1476 1489 1497 1498 1490 1477 1467 1466 1471 1475 1470 1470 1470 1471 1471 1472 1474 1475 1476 1477 1479 1480 1482 1484 1486 1488 1490 1492 1494 1496 1497 1498 1498 1499 1500 1500 1501 1501 1501 1502 1502 1501 1501
1465 1470 1484 1492 1495 1495 1478 1463 1461 1466 1478 1469 1468 1469 1470 1470 1477 1476 1474 1475 1475 1477 1479 1480 1482 1484 1485 1487 1490 1492 1492 1494 1495 1495 1496 1497 1497 1498 1498 1498 1498 1498 1498 1498
1475 1478 1484 1489 1491 1483 1467 1460 1461 1478 1477 1467 1466 1467 1469 1470 1472 1472 1472 1473 1473 1475 1477 1479 1480 1482 1483 1485 1487 1488 1489 1491 1492 1493 1493 1494 1494 1495 1495 1495 1496 1495 1495 1495
1478 1482 1484 1486 1490 1484 1461 1460 1466 1467 1463 1465 1465 1466 1467 1468 1470 1470 1470 1470 1471 1473 1476 1478 1479 1480 1482 1483 1484 1485 1486 1488 1490 1491 1491 1491 1492 1492 1492 1492 1492 1492 1492 1492
1470 1471 1472 1474 1474 1462 1458 1459 1460 1461 1463 1464 1465 1466 1467 1468 1469 1470 1470 1470 1471 1473 1474 1475 1476 1478 1480 1481 1482 1483 1484 1486 1487 1488 1489 1489 1490 1490 1490 1490 1490 1490 1489 1489
1465 1462 1465 1467 1462 1459 1458 1457 1459 1460 1461 1462 1463 1464 1466 1467 1468 1469 1469 1470 1470 1471 1472 1473 1474 1476 1478 1479 1480 1481 1482 1483 1484 1485 1486 1487 1487 1487 1488 1487 1487 1487 1487 1486
1464 1462 1464 1465 1461 1459 1457 1456 1457 1459 1460 1461 1463 1463 1464 1465 1466 1467 1468 1468 1469 1470 1470 1472 1473 1474 1475 1477 1478 1479 1480 1481 1482 1483 1483 1485 1485 1484 1485 1485 1485 1485 1484 1484
1460 1461 1464 1463 1457 1457 1456 1456 1456 1457 1459 1460 1461 1462 1463 1464 1464 1465 1466 1468 1468 1469 1470 1471 1472 1472 1473 1474 1476 1477 1478 1478 1479 1480 1481 1482 1483 1482 1482 1482 1482 1482 1482 1482